[[{"header":{"parameterUnit":"m.s-1","parameterCategory":1,"la1":30.2991,"la2":30.254,"lo1":-89.0895,"lo2":-89.0444,"dy":0.0017,"dx":0.0017,"nx":28,"ny":28,"refTime":"2025-03-24T21:00:00:Z","depth":0,"parameterNumber":2,"parameterNumberName":"U-component_of_WINDS"},"data":[0,0,0,0,0,0,0,0,0,0,0,0,0,0,0,0,0,0,0,0,0,0,0,0,0,0,0,0,0,0,0,0,0,0,0,0,0,0,0,0,0,0,0,0,0,0,0,0,0,0,0,0,0,0,0,0,0,0,-0.6508,-0.6507,0,-0.6392,-0.6391,-0.639,-0.6305,-0.6305,-0.6304,-0.6303,-0.6181,-0.6179,-0.6176,0,0,0,0,0,0,0,0,0,0,0,0,0,-0.6653,-0.6651,-0.6508,-0.6507,-0.6505,-0.6393,-0.6391,-0.6389,-0.6305,-0.6305,-0.6304,-0.6303,-0.6182,-0.6179,-0.6176,0,0,0,0,0,0,0,0,0,0,0,0,0,-0.6569,-0.665,-0.6508,-0.645,-0.6443,-0.6393,-0.6391,-0.6389,-0.6306,-0.6305,-0.6303,-0.6302,-0.6183,-0.6179,-0.6176,-0.6173,0,0,-0.6164,-0.6162,0,0,0,0,0,0,0,0,-0.6574,-0.6564,-0.646,-0.6454,-0.6446,-0.6362,-0.6397,-0.6316,-0.6306,-0.6358,-0.6303,-0.6302,-0.6242,-0.6233,-0.6214,-0.6167,-0.6162,-0.6163,-0.6161,-0.6159,-0.6158,0,0,0,0,0,0,0,-0.658,-0.6568,-0.6462,-0.6458,-0.645,-0.6428,-0.6415,-0.6382,-0.6307,-0.6353,-0.6347,-0.6334,-0.6238,-0.6218,-0.621,-0.616,-0.6163,-0.616,-0.6158,-0.6156,-0.6106,-0.6107,0,0,0,0,0,0,-0.6595,-0.6574,-0.6466,-0.6459,-0.6509,-0.6427,-0.6412,-0.639,-0.6307,-0.6294,-0.6335,-0.6331,-0.6225,-0.6215,-0.6206,-0.6198,-0.6159,-0.6156,-0.6153,-0.6105,-0.6106,-0.6107,0,0,0,0,0,0,-0.6599,-0.6586,-0.647,-0.6514,-0.6498,-0.6425,-0.6402,-0.6389,-0.6368,-0.6294,-0.628,-0.6329,-0.6224,-0.6211,-0.6182,-0.6193,-0.6154,-0.615,-0.6104,-0.6105,-0.6107,-0.6182,0,0,0,0,0,0,-0.6603,-0.6588,-0.6587,-0.6515,-0.6496,-0.645,-0.6402,-0.6387,-0.6362,-0.6355,-0.6284,-0.6271,-0.6222,-0.6188,-0.6178,-0.6187,-0.6147,-0.6103,-0.6105,-0.6106,-0.6179,-0.6186,-0.6193,0,0,0,0,0,-0.6609,-0.6612,-0.6588,-0.6575,-0.6493,-0.6451,-0.644,-0.6384,-0.6363,-0.6361,-0.6314,-0.6273,-0.6193,-0.6186,-0.6174,-0.6181,-0.6102,-0.6104,-0.6106,-0.6175,-0.6185,-0.6193,0,0,0,0,0,0,-0.6686,-0.6602,-0.6573,-0.6554,-0.651,-0.6437,-0.6432,-0.6396,-0.6356,-0.6351,-0.6283,-0.6268,-0.6246,-0.621,-0.6204,-0.6175,-0.6142,-0.6142,-0.6199,-0.6207,-0.6214,-0.6224,-0.6144,0,0,0,0,0,-0.6701,-0.6675,-0.6602,-0.6591,-0.6571,-0.6506,-0.6485,-0.6446,-0.6398,-0.6379,-0.6329,-0.6283,-0.6247,-0.6225,-0.6188,-0.6173,-0.6156,-0.6172,-0.6179,-0.6185,-0.6186,-0.6176,-0.6183,-0.6115,-0.6115,-0.6115,0,0,-0.6731,-0.6682,-0.6669,-0.6606,-0.6567,-0.6541,-0.6491,-0.6464,-0.6444,-0.6374,-0.6345,-0.6306,-0.625,-0.6229,-0.6216,-0.6198,-0.6201,-0.6188,-0.6193,-0.6191,-0.6179,-0.6186,-0.6192,-0.6116,-0.6116,-0.6116,0,0,-0.6773,-0.6733,-0.6721,-0.6684,-0.6627,-0.6583,-0.6581,-0.6513,-0.6485,-0.6454,-0.6402,-0.6376,-0.6315,-0.6278,-0.6251,-0.628,-0.6241,-0.6269,-0.6306,-0.6298,-0.6303,-0.6307,-0.6319,-0.6323,-0.627,-0.627,-0.627,0,-0.6818,-0.6777,-0.6719,-0.6696,-0.667,-0.6607,-0.6593,-0.656,-0.6493,-0.6476,-0.6457,-0.6381,-0.6338,-0.6308,-0.6315,-0.6295,-0.6289,-0.6277,-0.6307,-0.6311,-0.6314,-0.6324,-0.6328,-0.6274,-0.6274,-0.6273,-0.6273,0,-0.6835,-0.6808,-0.6804,-0.6743,-0.6716,-0.6698,-0.6637,-0.6616,-0.658,-0.6538,-0.6508,-0.6455,-0.6407,-0.6396,-0.6359,-0.636,-0.6351,-0.632,-0.6286,-0.6326,-0.6334,-0.6337,-0.628,-0.6278,-0.6277,-0.6276,0,0,-0.6923,-0.6831,-0.6831,-0.6803,-0.6736,-0.6713,-0.6691,-0.6646,-0.663,-0.6586,-0.6567,-0.6518,-0.6489,-0.6459,-0.6417,-0.641,-0.6437,-0.638,-0.6377,-0.6393,-0.6435,-0.646,-0.6465,-0.6411,-0.6411,-0.6411,-0.6441,0,-0.6956,-0.6916,-0.6863,-0.6841,-0.6815,-0.6755,-0.6736,-0.6693,-0.6654,-0.6625,-0.658,-0.6548,-0.6512,-0.6494,-0.6483,-0.6436,-0.6445,-0.6433,-0.6392,-0.6391,-0.641,-0.6469,-0.6495,-0.6525,-0.6443,-0.6444,-0.6444,0,-0.6989,-0.695,-0.6926,-0.6862,-0.6849,-0.6833,-0.6787,-0.6761,-0.671,-0.6682,-0.6649,-0.6604,-0.6578,-0.6548,-0.6511,-0.6505,-0.6484,-0.6459,-0.6459,-0.6453,-0.6421,-0.6467,-0.6533,-0.6538,-0.6448,-0.6448,-0.6448,0,-0.7057,-0.6998,-0.6977,-0.6954,-0.6878,-0.6869,-0.6837,-0.6785,-0.6761,-0.672,-0.6704,-0.6661,-0.6637,-0.6604,-0.6549,-0.6531,-0.6519,-0.6483,-0.6495,-0.6496,-0.6495,-0.6497,-0.6561,-0.6481,-0.6481,-0.6481,-0.6481,0,-0.71,-0.7088,-0.7007,-0.6993,-0.6978,-0.6917,-0.6903,-0.6865,-0.6819,-0.6797,-0.6741,-0.6722,-0.6649,-0.6621,-0.6577,-0.6555,-0.6544,-0.652,-0.6509,-0.6526,-0.6529,-0.6513,-0.651,-0.6482,-0.6482,-0.6481,-0.6481,0,-0.7174,-0.7119,-0.7092,-0.7022,-0.7005,-0.6997,-0.6937,-0.6921,-0.6879,-0.6852,-0.6842,-0.6775,-0.6739,-0.668,-0.6626,-0.6597,-0.6582,-0.6562,-0.66,-0.6593,-0.6609,-0.6609,-0.6666,-0.667,-0.6587,-0.6588,-0.6589,0,-0.7205,-0.7195,-0.7125,-0.7107,-0.7077,-0.7048,-0.7024,-0.6963,-0.694,-0.6881,-0.6873,-0.6833,-0.6798,-0.6742,-0.6688,-0.6647,-0.6627,-0.6649,-0.662,-0.6638,-0.6628,-0.6631,-0.663,-0.6657,-0.6658,-0.6659,-0.666,0,-0.7268,-0.7241,-0.7209,-0.7167,-0.714,-0.7104,-0.7065,-0.7053,-0.6983,-0.696,-0.6923,-0.6896,-0.6842,-0.6802,-0.6754,-0.6719,-0.6678,-0.6669,-0.667,-0.6688,-0.6711,-0.67,-0.662,-0.6668,-0.6668,-0.6667,-0.6666,-0.6666,-0.7322,-0.731,-0.726,-0.7226,-0.719,-0.7156,-0.7138,-0.7094,-0.7063,-0.7015,-0.698,-0.6946,-0.6895,-0.6825,-0.6793,-0.6765,-0.6747,-0.6747,-0.6748,-0.6749,-0.6757,-0.6715,-0.6756,-0.6755,-0.6755,-0.6755,-0.6754,0,-0.7383,-0.7347,-0.7317,-0.7265,-0.7238,-0.7202,-0.7157,-0.7137,-0.7108,-0.7065,-0.7032,-0.699,-0.6952,-0.6895,-0.6852,-0.6841,-0.6821,-0.6832,-0.6833,-0.6826,-0.6775,-0.6779,-0.6849,-0.6849,-0.6849,-0.6849,-0.6849,-0.6849,-0.7411,-0.739,-0.7358,-0.7318,-0.7282,-0.725,-0.7227,-0.7195,-0.716,-0.7116,-0.7085,-0.7048,-0.6999,-0.6953,-0.6917,-0.6901,-0.6888,-0.6905,-0.6884,-0.6838,-0.6829,-0.6821,-0.6825,-0.6903,-0.6903,-0.6937,-0.6938,-0.6938]},{"header":{"parameterUnit":"m.s-1","parameterCategory":1,"la1":30.2991,"la2":30.254,"lo1":-89.0895,"lo2":-89.0444,"dy":0.0017,"dx":0.0017,"nx":28,"ny":28,"refTime":"2025-03-24T21:00:00:Z","depth":0,"parameterNumber":3,"parameterNumberName":"V-component_of_WINDS"},"data":[0,0,0,0,0,0,0,0,0,0,0,0,0,0,0,0,0,0,0,0,0,0,0,0,0,0,0,0,0,0,0,0,0,0,0,0,0,0,0,0,0,0,0,0,0,0,0,0,0,0,0,0,0,0,0,0,0,0,1.2987,1.2987,0,1.2941,1.294,1.294,1.2953,1.2954,1.2955,1.2956,1.2903,1.2901,1.2898,0,0,0,0,0,0,0,0,0,0,0,0,0,1.3083,1.3081,1.2987,1.2987,1.2986,1.2941,1.294,1.294,1.2953,1.2954,1.2955,1.2956,1.2904,1.2901,1.2898,0,0,0,0,0,0,0,0,0,0,0,0,0,1.3039,1.3081,1.2988,1.2987,1.2987,1.2941,1.294,1.294,1.2952,1.2954,1.2955,1.2957,1.2904,1.2901,1.2898,1.2848,0,0,1.2887,1.2886,0,0,0,0,0,0,0,0,1.3042,1.3036,1.2988,1.2987,1.2987,1.2954,1.2955,1.2909,1.2952,1.2965,1.2956,1.2957,1.2918,1.2914,1.2902,1.2845,1.2843,1.2887,1.2885,1.2883,1.2882,0,0,0,0,0,0,0,1.3045,1.3038,1.2969,1.2987,1.2987,1.2988,1.2984,1.2946,1.2934,1.2964,1.2965,1.296,1.2918,1.2905,1.2901,1.2842,1.2887,1.2884,1.2882,1.288,1.2742,1.2741,0,0,0,0,0,0,1.3049,1.304,1.297,1.2968,1.3019,1.2985,1.298,1.2963,1.2935,1.2932,1.2959,1.2961,1.291,1.2905,1.2899,1.2839,1.2883,1.288,1.2878,1.2744,1.2742,1.274,0,0,0,0,0,0,1.3051,1.3043,1.2972,1.3004,1.2995,1.2982,1.2963,1.2961,1.2948,1.2931,1.2928,1.2948,1.2911,1.2904,1.2861,1.2837,1.2879,1.2875,1.2746,1.2743,1.2741,1.2717,0,0,0,0,0,0,1.3054,1.3043,1.3025,1.3004,1.2994,1.2936,1.2962,1.296,1.2943,1.2945,1.292,1.2917,1.2912,1.2866,1.2857,1.2833,1.2873,1.2748,1.2745,1.2742,1.272,1.2714,1.2709,0,0,0,0,0,1.3057,1.3019,1.3024,1.3016,1.2971,1.2935,1.2929,1.2926,1.2941,1.2922,1.2911,1.2917,1.2841,1.2861,1.2852,1.2826,1.2749,1.2745,1.2742,1.2722,1.2716,1.271,0,0,0,0,0,0,1.3036,1.3016,1.3022,1.2976,1.2957,1.2937,1.2913,1.2918,1.2893,1.2896,1.2892,1.2886,1.2842,1.283,1.2852,1.2776,1.2797,1.2791,1.2786,1.2779,1.2774,1.2777,1.287,0,0,0,0,0,1.3026,1.3,1.2984,1.2945,1.2935,1.2926,1.291,1.2909,1.2889,1.288,1.2866,1.2844,1.2816,1.2797,1.2769,1.2719,1.2713,1.2696,1.2691,1.2687,1.2682,1.2654,1.2646,1.2728,1.2728,1.2728,0,0,1.3005,1.2991,1.2975,1.294,1.2926,1.2897,1.2919,1.2888,1.2866,1.2875,1.2834,1.2823,1.2798,1.2752,1.273,1.274,1.2658,1.2682,1.2679,1.2676,1.2649,1.2642,1.2635,1.2726,1.2726,1.2727,0,0,1.2953,1.294,1.2906,1.2892,1.287,1.2864,1.2856,1.2836,1.2829,1.2788,1.2794,1.2768,1.2719,1.2701,1.2686,1.2628,1.2633,1.2619,1.2591,1.2564,1.2558,1.2552,1.2531,1.2524,1.2614,1.2614,1.2614,0,1.2929,1.2888,1.2888,1.2857,1.2841,1.285,1.2815,1.2801,1.277,1.2759,1.2771,1.271,1.2694,1.2643,1.2629,1.2617,1.2607,1.2622,1.2559,1.2553,1.2548,1.2528,1.252,1.2613,1.2613,1.2613,1.2613,0,1.286,1.2831,1.2807,1.2779,1.2761,1.2728,1.2722,1.2703,1.2704,1.2697,1.2655,1.2636,1.2606,1.2594,1.2594,1.2543,1.255,1.256,1.2581,1.2538,1.252,1.2512,1.261,1.2611,1.2611,1.2612,0,0,1.2791,1.2766,1.2757,1.2745,1.2722,1.2699,1.2666,1.2638,1.2622,1.2601,1.2573,1.2531,1.2542,1.2524,1.2522,1.2499,1.2454,1.2512,1.2512,1.2502,1.2397,1.2389,1.238,1.2458,1.2457,1.2455,1.2399,0,1.2737,1.2681,1.268,1.2629,1.2602,1.2611,1.2582,1.2564,1.2557,1.2532,1.2522,1.2493,1.2509,1.2499,1.2476,1.2465,1.2433,1.2469,1.243,1.2429,1.2436,1.237,1.2361,1.2309,1.2392,1.239,1.2389,0,1.2665,1.2644,1.259,1.2572,1.2561,1.2536,1.251,1.2487,1.2466,1.2462,1.2444,1.2446,1.2411,1.2434,1.2386,1.241,1.2395,1.2387,1.2385,1.2381,1.2406,1.2364,1.2292,1.2284,1.2378,1.2379,1.238,0,1.262,1.2578,1.2541,1.253,1.2508,1.249,1.248,1.2461,1.2445,1.2422,1.2411,1.2383,1.2368,1.2347,1.2341,1.2358,1.2293,1.2315,1.2288,1.2288,1.2273,1.2274,1.2197,1.2263,1.2264,1.2264,1.2264,0,1.2559,1.2526,1.2521,1.2497,1.246,1.2459,1.2422,1.2413,1.2396,1.2371,1.2376,1.2351,1.2346,1.232,1.2315,1.2276,1.2269,1.2264,1.2263,1.2263,1.2264,1.2252,1.2256,1.2262,1.2262,1.2262,1.2263,0,1.2502,1.2498,1.2458,1.2441,1.2436,1.2409,1.2394,1.2371,1.2365,1.2332,1.2324,1.2313,1.2283,1.2276,1.2239,1.2236,1.219,1.2192,1.2197,1.2197,1.217,1.2172,1.2083,1.2071,1.2145,1.2145,1.2144,0,1.2463,1.2438,1.2419,1.2403,1.2393,1.2367,1.2351,1.2349,1.2331,1.2307,1.2287,1.2258,1.2234,1.2186,1.2173,1.2146,1.2147,1.2118,1.2143,1.2144,1.2147,1.2148,1.2145,1.2113,1.2112,1.2111,1.2111,0,1.2394,1.2394,1.2371,1.2347,1.2328,1.2309,1.229,1.2277,1.2272,1.2252,1.2222,1.2204,1.2168,1.2139,1.2111,1.2099,1.2104,1.2103,1.2095,1.2095,1.2099,1.2097,1.2184,1.2105,1.2106,1.2106,1.2106,1.2107,1.2345,1.2323,1.2307,1.2281,1.2268,1.2251,1.2229,1.2221,1.2196,1.2168,1.2168,1.2135,1.2116,1.208,1.2066,1.204,1.2049,1.2037,1.2034,1.2031,1.2029,1.2104,1.2035,1.2035,1.2035,1.2035,1.2035,0,1.2276,1.2266,1.2243,1.2218,1.2198,1.2206,1.2187,1.2169,1.2141,1.2123,1.2101,1.2067,1.2039,1.2025,1.1997,1.1979,1.198,1.1971,1.1972,1.197,1.2023,1.2032,1.1971,1.1971,1.1971,1.1971,1.1971,1.1971,1.2238,1.2202,1.2199,1.2156,1.2146,1.2116,1.2104,1.2088,1.2074,1.2037,1.2014,1.2006,1.199,1.1961,1.1936,1.1933,1.1922,1.1912,1.1909,1.1959,1.1966,1.1972,1.1981,1.1909,1.1909,1.1858,1.1858,1.1858]}]]